Location: Waco, TX
(31.5480°N, 97.1670°W)
Time: 08:39:00
(UTC-05:00)

ISS - Pass Details

Date: 16 October 2019
Orbit: 411 x 421 km, 51.6° (Epoch: 18 October)

Event Time Altitude Azimuth Distance (km) Brightness Sun altitude
Rises 10:45:00 0° 260° (W) 2,352 -0.3 36.0°
Reaches altitude 10° 10:47:37 10° 282° (WNW) 1,490 -1.3 36.4°
Maximum altitude 10:49:54 17° 325° (NW) 1,137 -1.9 36.8°
Drops below altitude 10° 10:52:11 10° 8° (N) 1,490 -1.2 37.1°
Sets 10:54:48 0° 30° (NNE) 2,353 -0.1 37.5°
